TimeMDT,TemperatureF,Dew PointF,Humidity,Sea Level PressureIn,VisibilityMPH,Wind Direction,Wind SpeedMPH,Gust SpeedMPH,PrecipitationIn,Events,Conditions,WindDirDegrees,DateUTC
12:51 AM,75.0,48.9,40,-9999,10.0,WSW,17.3,-,N/A,,Clear,250,2013-08-07 06:51:00
1:51 AM,73.9,50.0,43,-9999,10.0,WSW,17.3,25.3,N/A,,Clear,250,2013-08-07 07:51:00
2:51 AM,70.0,51.1,51,-9999,10.0,SW,13.8,-,N/A,,Clear,230,2013-08-07 08:51:00
3:51 AM,71.1,54.0,55,-9999,9.0,WSW,19.6,27.6,N/A,,Clear,240,2013-08-07 09:51:00
4:51 AM,66.9,54.0,63,-9999,9.0,SW,26.5,-,N/A,,Clear,220,2013-08-07 10:51:00
5:51 AM,64.9,55.9,73,-9999,9.0,SW,18.4,32.2,N/A,,Clear,230,2013-08-07 11:51:00
6:51 AM,66.9,55.9,68,-9999,8.0,WSW,26.5,34.5,N/A,,Clear,240,2013-08-07 12:51:00
7:51 AM,70.0,57.0,63,-9999,8.0,WSW,29.9,35.7,N/A,,Clear,250,2013-08-07 13:51:00
8:51 AM,70.0,57.0,63,-9999,8.0,WSW,27.6,35.7,N/A,,Scattered Clouds,240,2013-08-07 14:51:00
9:51 AM,72.0,55.0,55,-9999,9.0,WSW,31.1,36.8,N/A,,Mostly Cloudy,250,2013-08-07 15:51:00
10:51 AM,73.0,55.0,53,-9999,9.0,WSW,26.5,34.5,N/A,,Overcast,250,2013-08-07 16:51:00
11:51 AM,79.0,55.9,45,-9999,9.0,West,26.5,36.8,0.00,,Scattered Clouds,260,2013-08-07 17:51:00
12:51 PM,82.9,55.9,39,-9999,9.0,West,19.6,28.8,N/A,,Partly Cloudy,260,2013-08-07 18:51:00
1:51 PM,82.9,54.0,37,-9999,9.0,SW,16.1,29.9,N/A,,Mostly Cloudy,220,2013-08-07 19:51:00
2:51 PM,84.0,54.0,35,-9999,9.0,WSW,16.1,25.3,N/A,,Partly Cloudy,240,2013-08-07 20:51:00
3:51 PM,86.0,54.0,33,-9999,9.0,WSW,18.4,29.9,N/A,,Scattered Clouds,240,2013-08-07 21:51:00
4:51 PM,84.9,51.1,31,-9999,9.0,WSW,21.9,33.4,N/A,,Clear,240,2013-08-07 22:51:00
5:51 PM,84.0,52.0,33,-9999,9.0,WSW,21.9,28.8,N/A,,Mostly Cloudy,250,2013-08-07 23:51:00
6:51 PM,79.0,54.0,42,-9999,9.0,WSW,25.3,-,N/A,,Partly Cloudy,240,2013-08-08 00:51:00
7:51 PM,75.9,55.0,48,-9999,9.0,SW,20.7,-,N/A,,Clear,230,2013-08-08 01:51:00
8:51 PM,73.0,55.9,55,-9999,10.0,WSW,16.1,-,N/A,,Clear,240,2013-08-08 02:51:00
9:51 PM,73.0,55.0,53,-9999,10.0,SW,12.7,-,N/A,,Clear,230,2013-08-08 03:51:00
10:51 PM,72.0,54.0,53,-9999,9.0,SW,12.7,-,N/A,,Clear,230,2013-08-08 04:51:00
11:51 PM,72.0,52.0,49,-9999,9.0,SW,12.7,-,N/A,,Clear,220,2013-08-08 05:51:00